| time (UTC) | temp F | wind direction | speed MPH | gust MPH | rain 1hr in | rain 24hr in | rain mn in | humidity % | barometer mb |
| 20260504050002 | 54 | 324 | 3.0 | 8.0 | 0.00 | 0.09 | 0.02 | 94 | 1010.0 |
| 20260504044600 | 55 | 275 | 7.0 | 12.0 | 0.00 | 0.09 | 0.02 | 94 | 1009.9 |
| 20260504043105 | 55 | 299 | 3.0 | 10.0 | 0.00 | 0.09 | 0.02 | 94 | 1009.9 |
| 20260504041559 | 55 | 287 | 7.0 | 12.0 | 0.00 | 0.09 | 0.02 | 94 | 1009.8 |
| 20260504040103 | 56 | 282 | 7.0 | 15.0 | 0.00 | 0.09 | 0.02 | 94 | 1009.6 |
| 20260504034605 | 57 | 274 | 3.0 | 12.0 | 0.00 | 0.09 | 0.02 | 94 | 1009.5 |
| 20260504033056 | 57 | 268 | 5.0 | 10.0 | 0.00 | 0.09 | 0.02 | 94 | 1009.4 |
| 20260504031550 | 57 | 285 | 4.0 | 13.0 | 0.00 | 0.09 | 0.02 | 93 | 1009.4 |
| 20260504030049 | 58 | 270 | 3.0 | 14.0 | 0.00 | 0.09 | 0.02 | 94 | 1009.6 |
| 20260504024548 | 58 | 289 | 5.0 | 14.0 | 0.00 | 0.09 | 0.02 | 94 | 1009.7 |
| 20260504023046 | 58 | 302 | 3.0 | 12.0 | 0.00 | 0.09 | 0.02 | 94 | 1010.0 |
| 20260504021545 | 58 | 287 | 4.0 | 12.0 | 0.00 | 0.09 | 0.02 | 93 | 1010.2 |
| 20260504020054 | 58 | 330 | 4.0 | 9.0 | 0.00 | 0.09 | 0.02 | 93 | 1010.4 |
| 20260504014550 | 58 | 291 | 5.0 | 14.0 | 0.01 | 0.09 | 0.02 | 93 | 1010.7 |
| 20260504013041 | 58 | 261 | 4.0 | 11.0 | 0.01 | 0.09 | 0.02 | 93 | 1010.9 |
| 20260504011545 | 58 | 332 | 3.0 | 11.0 | 0.01 | 0.09 | 0.02 | 94 | 1011.1 |
| 20260504010038 | 58 | 334 | 4.0 | 9.0 | 0.01 | 0.09 | 0.02 | 93 | 1011.3 |
| 20260504004537 | 58 | 314 | 4.0 | 11.0 | 0.00 | 0.08 | 0.01 | 93 | 1011.5 |
| 20260504003036 | 57 | 273 | 9.0 | 18.0 | 0.00 | 0.08 | 0.01 | 94 | 1011.7 |
| 20260504001536 | 58 | 299 | 4.0 | 11.0 | 0.01 | 0.08 | 0.01 | 94 | 1011.4 |
| 20260504000032 | 58 | 287 | 5.0 | 14.0 | 0.01 | 0.08 | 0.01 | 94 | 1011.5 |
| 20260503234531 | 57 | 318 | 4.0 | 11.0 | 0.01 | 0.08 | 0.01 | 94 | 1011.6 |
| 20260503233029 | 57 | 12 | 3.0 | 10.0 | 0.01 | 0.08 | 0.01 | 94 | 1011.6 |
| 20260503231527 | 57 | 267 | 5.0 | 17.0 | 0.02 | 0.08 | 0.01 | 94 | 1011.6 |
| 20260503230027 | 57 | 293 | 4.0 | 10.0 | 0.02 | 0.07 | 0.00 | 94 | 1011.7 |
| 20260503224527 | 57 | 337 | 4.0 | 10.0 | 0.02 | 0.07 | 0.00 | 94 | 1011.7 |
| 20260503223023 | 57 | 289 | 7.0 | 19.0 | 0.02 | 0.07 | 0.00 | 94 | 1011.7 |
| 20260503221522 | 57 | 335 | 2.0 | 11.0 | 0.01 | 0.06 | 0.06 | 94 | 1011.8 |
| 20260503220021 | 57 | 356 | 2.0 | 11.0 | 0.00 | 0.06 | 0.06 | 94 | 1011.6 |
| 20260503214536 | 57 | 283 | 3.0 | 9.0 | 0.00 | 0.06 | 0.06 | 94 | 1011.5 |
| 20260503213019 | 57 | 343 | 1.0 | 10.0 | 0.00 | 0.06 | 0.06 | 94 | 1011.5 |
| 20260503211518 | 57 | 335 | 2.0 | 10.0 | 0.00 | 0.06 | 0.06 | 94 | 1011.6 |
| 20260503210020 | 57 | 312 | 2.0 | 16.0 | 0.00 | 0.06 | 0.06 | 94 | 1011.3 |
| 20260503204519 | 57 | 352 | 3.0 | 8.0 | 0.00 | 0.06 | 0.06 | 94 | 1011.0 |
| 20260503203018 | 57 | 14 | 2.0 | 10.0 | 0.00 | 0.06 | 0.06 | 94 | 1010.9 |
| 20260503201517 | 57 | 340 | 2.0 | 11.0 | 0.00 | 0.06 | 0.06 | 95 | 1011.0 |
| 20260503200017 | 57 | 6 | 4.0 | 11.0 | 0.00 | 0.06 | 0.06 | 95 | 1010.9 |
| 20260503194517 | 57 | 300 | 2.0 | 7.0 | 0.00 | 0.06 | 0.06 | 95 | 1011.0 |
| 20260503193017 | 56 | 326 | 2.0 | 4.0 | 0.00 | 0.06 | 0.06 | 95 | 1010.9 |
| 20260503191518 | 56 | 279 | 1.0 | 4.0 | 0.00 | 0.06 | 0.06 | 95 | 1011.0 |
| 20260503190014 | 56 | 298 | 2.0 | 6.0 | 0.00 | 0.06 | 0.06 | 95 | 1011.1 |
| 20260503184513 | 56 | 305 | 0.0 | 2.0 | 0.00 | 0.06 | 0.06 | 94 | 1011.3 |
| 20260503183013 | 56 | 286 | 0.0 | 4.0 | 0.00 | 0.06 | 0.06 | 94 | 1011.4 |
| 20260503181511 | 56 | 308 | 2.0 | 7.0 | 0.00 | 0.06 | 0.06 | 94 | 1011.6 |
| 20260503180012 | 56 | 341 | 2.0 | 8.0 | 0.00 | 0.06 | 0.06 | 94 | 1011.5 |
| 20260503174515 | 56 | 339 | 0.0 | 6.0 | 0.00 | 0.06 | 0.06 | 94 | 1011.7 |
| 20260503173013 | 56 | 330 | 1.0 | 7.0 | 0.00 | 0.06 | 0.06 | 94 | 1011.9 |
| 20260503171509 | 56 | 314 | 2.0 | 7.0 | 0.00 | 0.06 | 0.06 | 94 | 1011.9 |
| 20260503150110 | 58 | 281 | 1.0 | 9.0 | 0.06 | 0.06 | 0.06 | 93 | 1012.9 |